Flight Track Log - Related Links

Times and Time Zones

All times are in EST time to prevent confusion due to time zone crossing. See the N244A flight status page for this flight to view local times or setup timezone preferences in your user account.

Time Position Orientation Groundspeed Altitude Reporting Facility
EST Latitude Longitude Course Direction KTS MPH feet Rate Location/Type
Wed 07:44:44 AM 41.0833 -73.7167 288° West 182 209 1,000  Level New York TRACON
Wed 07:45:38 AM 41.1000 -73.7833 288° West 229 264 2,800 2,895 Climbing New York TRACON
Wed 07:46:38 AM 41.1167 -73.8667 285° West 260 299 6,500 3,770 Climbing New York TRACON
Wed 07:47:31 AM 41.1397 -73.9450 291° West 281 323 9,900 2,973 Climbing New York Center
Wed 07:48:31 AM 41.1825 -74.0572 297° West 336 387 12,100 2,100 Climbing New York Center
Wed 07:49:31 AM 41.2206 -74.1806 292° West 357 411 14,100 1,000 Climbing New York Center
Wed 07:50:31 AM 41.2122 -74.3261 266° West 388 447 14,100 300 Level New York Center
Wed 07:51:31 AM 41.1831 -74.4653 254° West 388 447 14,700 950 Climbing New York Center
Wed 07:52:31 AM 41.1517 -74.6011 253° West 388 447 16,000 1,300 Climbing New York Center
Wed 07:53:31 AM 41.1550 -74.7447 272° West 383 441 17,300 1,500 Climbing New York Center
Wed 07:54:31 AM 41.2133 -74.8722 301° West 387 445 19,000 1,700 Climbing New York Center
Wed 07:55:31 AM 41.2650 -74.9994 298° West 387 445 20,700 1,500 Climbing New York Center
Wed 07:56:31 AM 41.3228 -75.1275 301° West 397 457 22,000 1,250 Climbing New York Center
Wed 07:57:31 AM 41.3783 -75.2583 300° West 409 471 23,200 1,500 Climbing New York Center
Wed 07:58:31 AM 41.4339 -75.3864 300° West 409 471 25,000 2,050 Climbing New York Center
Wed 07:59:31 AM 41.5108 -75.4914 314° West 391 450 27,300 2,200 Climbing New York Center
Wed 08:00:31 AM 41.6019 -75.5617 330° Northwest 386 444 29,400 2,000 Climbing New York Center
Wed 08:01:31 AM 41.6647 -75.6550 312° West 365 420 31,300 1,537 Climbing New York Center
Wed 08:02:32 AM 41.7058 -75.7636 297° West 341 392 32,500 1,400 Climbing New York Center
Wed 08:03:31 AM 41.7328 -75.8686 289° West 336 387 34,100 1,311 Climbing New York Center
Wed 08:04:31 AM 41.7719 -75.9744 296° West 323 372 35,100 1,000 Climbing New York Center
Wed 08:05:31 AM 41.8111 -76.0750 298° West 317 365 36,100 850 Climbing New York Center
Wed 08:06:31 AM 41.8544 -76.1786 299° West 317 365 36,800 750 Climbing New York Center
Wed 08:07:31 AM 41.8828 -76.2869 289° West 311 358 37,600 850 Climbing New York Center
Wed 08:08:31 AM 41.9000 -76.4053 281° West 301 346 38,500 750 Climbing New York Center
Wed 08:09:31 AM 41.9222 -76.5103 286° West 296 341 39,100 465 Climbing New York Center
Wed 08:11:06 AM 41.9589 -76.6767 287° West 297 342 39,700 344 Climbing Cleveland Center
Wed 08:12:08 AM 41.9800 -76.7839 285° West 297 342 40,000 145 Climbing Cleveland Center
Wed 08:13:10 AM 42.0036 -76.8911 287° West 299 344 40,000  Level Cleveland Center
Wed 08:14:12 AM 42.0247 -77.0014 284° West 304 350 40,000  Level Cleveland Center
Wed 08:15:14 AM 42.0492 -77.1147 286° West 312 359 40,000  Level Cleveland Center
Wed 08:16:16 AM 42.0717 -77.2275 285° West 313 360 40,000  Level Cleveland Center
Wed 08:17:18 AM 42.0992 -77.3675 285° West 320 368 40,000  Level Cleveland Center
Wed 08:18:20 AM 42.1242 -77.4872 286° West 327 376 40,000  Level Cleveland Center
Wed 08:19:22 AM 42.1469 -77.6067 284° West 329 379 40,000  Level Cleveland Center
Wed 08:20:24 AM 42.1706 -77.7258 285° West 329 379 40,000  Level Cleveland Center
Wed 08:21:26 AM 42.1939 -77.8456 285° West 329 379 40,000  Level Cleveland Center
Wed 08:22:28 AM 42.2189 -77.9672 286° West 334 384 40,000  Level Cleveland Center
Wed 08:23:30 AM 42.2414 -78.0894 284° West 335 386 40,000  Level Cleveland Center
Wed 08:24:32 AM 42.2658 -78.2114 285° West 337 388 40,000  Level Cleveland Center
Wed 08:25:34 AM 42.2939 -78.3583 285° West 336 387 40,000  Level Cleveland Center
Wed 08:26:36 AM 42.3178 -78.4803 285° West 336 387 40,000  Level Cleveland Center
Wed 08:27:38 AM 42.3392 -78.6044 283° West 338 389 40,000  Level Cleveland Center
Wed 08:28:40 AM 42.3625 -78.7264 285° West 335 386 40,000  Level Cleveland Center
Wed 08:29:42 AM 42.3872 -78.8494 285° West 340 391 40,000  Level Cleveland Center
Wed 08:30:44 AM 42.4136 -78.9883 284° West 339 390 40,000  Level Cleveland Center
Wed 08:31:46 AM 42.4447 -79.1053 290° West 335 386 40,000  Level Cleveland Center
Wed 08:32:48 AM 42.4769 -79.2325 289° West 334 384 40,000  Level Cleveland Center
Wed 08:33:50 AM 42.5053 -79.3503 288° West 330 380 40,000  Level Cleveland Center
Wed 08:34:52 AM 42.5339 -79.4678 288° West 330 380 40,000  Level Cleveland Center
Wed 08:35:54 AM 42.5611 -79.5867 287° West 331 381 40,000  Level Cleveland Center
Wed 08:36:56 AM 42.5911 -79.7044 289° West 331 381 40,000  Level Cleveland Center
Wed 08:37:58 AM 42.6125 -79.8478 282° West 325 374 40,000  Level Cleveland Center
Wed 08:39:00 AM 42.6167 -79.9697 273° West 324 373 40,000  Level Cleveland Center
Wed 08:40:02 AM 42.6219 -80.0875 274° West 326 375 40,000  Level Cleveland Center
Wed 08:41:04 AM 42.6286 -80.2100 274° West 324 373 40,000  Level Cleveland Center
Wed 08:42:06 AM 42.6333 -80.3331 273° West 325 374 40,000  Level Cleveland Center
Wed 08:43:08 AM 42.6394 -80.4744 273° West 321 369 40,000  Level Cleveland Center
Wed 08:44:10 AM 42.6433 -80.5981 272° West 324 373 40,000  Level Cleveland Center
Wed 08:45:12 AM 42.6458 -80.7189 272° West 322 371 40,000  Level Cleveland Center
Wed 08:46:14 AM 42.6522 -80.8425 274° West 324 373 40,000  Level Cleveland Center
Wed 08:47:16 AM 42.6550 -80.9647 272° West 322 371 40,000  Level Cleveland Center
Wed 08:48:18 AM 42.6572 -81.0878 271° West 323 372 40,000  Level Cleveland Center
Wed 08:49:21 AM 42.6628 -81.2111 274° West 324 373 40,000  Level Cleveland Center
Wed 08:50:23 AM 42.6703 -81.3550 274° West 325 374 40,000  Level Cleveland Center
Wed 08:51:25 AM 42.6883 -81.4753 282° West 322 371 40,000  Level Cleveland Center
Wed 08:52:27 AM 42.7022 -81.6000 279° West 329 379 40,000  Level Cleveland Center
Wed 08:53:29 AM 42.7164 -81.7219 279° West 327 376 40,000  Level Cleveland Center
Wed 08:54:31 AM 42.7300 -81.8500 278° West 325 374 40,000  Level Cleveland Center
Wed 08:55:33 AM 42.7442 -81.9728 279° West 330 380 40,000  Level Cleveland Center
Wed 08:56:35 AM 42.7572 -82.0964 278° West 332 382 40,000  Level Cleveland Center
Wed 08:57:37 AM 42.7711 -82.2192 279° West 331 381 40,000  Level Cleveland Center
Wed 08:58:39 AM 42.7878 -82.3683 279° West 333 383 40,000  Level Cleveland Center
Wed 08:59:41 AM 42.7997 -82.4936 277° West 335 386 40,000  Level Cleveland Center
Wed 09:00:43 AM 42.8153 -82.6167 280° West 332 382 40,000  Level Cleveland Center
Wed 09:01:45 AM 42.8336 -82.7392 282° West 333 383 40,000  Level Cleveland Center
Wed 09:02:48 AM 42.8497 -82.8617 280° West 332 382 40,000  Level Cleveland Center
Wed 09:03:50 AM 42.8686 -83.0081 280° West 330 380 40,000  Level Cleveland Center
Wed 09:04:52 AM 42.8847 -83.1306 280° West 331 381 40,000  Level Cleveland Center
Wed 09:05:54 AM 42.9000 -83.2525 280° West 330 380 40,000  Level Cleveland Center
Wed 09:06:56 AM 42.9164 -83.3758 280° West 333 383 40,000  Level Cleveland Center
Wed 09:07:58 AM 42.9331 -83.4989 281° West 333 383 40,000  Level Cleveland Center
Wed 09:09:00 AM 42.9489 -83.6222 280° West 333 383 40,000  Level Cleveland Center
Wed 09:10:02 AM 42.9686 -83.7711 280° West 333 383 40,000  Level Cleveland Center
Wed 09:11:04 AM 42.9750 -83.8953 274° West 330 380 40,000  Level Cleveland Center
Wed 09:12:06 AM 42.9817 -84.0192 274° West 328 377 40,000  Level Cleveland Center
Wed 09:13:08 AM 42.9908 -84.1436 276° West 330 380 40,000  Level Cleveland Center
Wed 09:14:11 AM 42.9975 -84.2686 274° West 332 382 40,000  Level Cleveland Center
Wed 09:14:57 AM 43.0056 -84.3806 276° West 337 388 40,000  Level Chicago Center
Wed 09:15:58 AM 43.0122 -84.5056 274° West 333 383 40,000  Level Chicago Center
Wed 09:17:00 AM 43.0183 -84.6311 274° West 333 383 40,000  Level Chicago Center
Wed 09:18:02 AM 43.0239 -84.7539 274° West 328 377 40,000  Level Chicago Center
Wed 09:19:04 AM 43.0289 -84.9036 273° West 330 380 40,000  Level Chicago Center
Wed 09:20:06 AM 43.0356 -85.0281 274° West 329 379 40,000  Level Chicago Center
Wed 09:21:08 AM 43.0389 -85.1517 272° West 327 376 40,000  Level Chicago Center
Wed 09:22:10 AM 43.0442 -85.2758 273° West 328 377 40,000  Level Chicago Center
Wed 09:23:12 AM 43.0492 -85.4008 273° West 330 380 40,000  Level Chicago Center
Wed 09:24:14 AM 43.0525 -85.5253 272° West 329 379 40,000  Level Chicago Center
Wed 09:25:17 AM 43.0589 -85.6753 273° West 332 382 40,000  Level Chicago Center
Wed 09:26:18 AM 43.0622 -85.8011 272° West 333 383 40,000  Level Chicago Center
Wed 09:27:20 AM 43.0664 -85.9253 273° West 340 391 40,000  Level Chicago Center
Wed 09:28:22 AM 43.0725 -86.0492 274° West 335 386 40,000  Level Chicago Center
Wed 09:29:24 AM 43.0742 -86.2028 271° West 347 399 40,000  Level Chicago Center
Wed 09:30:26 AM 43.0783 -86.3311 273° West 342 394 40,000  Level Chicago Center
Wed 09:31:29 AM 43.0822 -86.4586 272° West 336 387 40,000  Level Chicago Center
Wed 09:32:31 AM 43.0847 -86.5858 272° West 336 387 40,000  Level Chicago Center
Wed 09:33:33 AM 43.0883 -86.7142 272° West 337 388 40,000  Level Chicago Center
Wed 09:34:35 AM 43.0917 -86.8686 272° West 338 389 40,000  Level Chicago Center
Wed 09:35:37 AM 43.1067 -86.9978 279° West 348 400 40,000  Level Chicago Center
Wed 09:36:39 AM 43.1322 -87.1283 285° West 356 410 40,000  Level Chicago Center
Wed 09:37:41 AM 43.1528 -87.2569 282° West 350 403 40,000  Level Chicago Center
Wed 09:38:43 AM 43.1753 -87.4014 282° West 346 398 40,000  Level Chicago Center
Wed 09:39:45 AM 43.1983 -87.5322 284° West 350 403 40,000  Level Chicago Center
Wed 09:40:47 AM 43.2194 -87.6633 283° West 353 406 40,000  Level Chicago Center
Wed 09:41:49 AM 43.2411 -87.7939 283° West 350 403 40,000  Level Chicago Center
Wed 09:42:51 AM 43.2622 -87.9244 283° West 351 404 40,000  Level Chicago Center
Wed 09:43:53 AM 43.2878 -88.0842 282° West 354 407 40,000  Level Chicago Center
Wed 09:44:55 AM 43.3097 -88.2189 283° West 358 412 40,000  Level Chicago Center
Wed 09:45:57 AM 43.3294 -88.3531 281° West 357 411 40,000  Level Chicago Center
Wed 09:46:59 AM 43.3542 -88.4969 283° West 364 419 40,000  Level Chicago Center
Wed 09:48:01 AM 43.3747 -88.6347 282° West 367 422 40,000  Level Chicago Center
Wed 09:49:03 AM 43.3964 -88.7753 282° West 371 427 40,000  Level Chicago Center
Wed 09:50:05 AM 43.4189 -88.9103 283° West 365 420 40,000  Level Chicago Center
Wed 09:51:07 AM 43.4383 -89.0483 281° West 366 421 40,000  Level Chicago Center
Wed 09:52:09 AM 43.4611 -89.1853 283° West 367 422 40,000  Level Chicago Center
Wed 09:53:11 AM 43.4839 -89.3517 281° West 371 427 40,000 -339 Level Chicago Center
Wed 09:54:13 AM 43.5067 -89.4908 283° West 372 428 39,300 -1,258 Descending Chicago Center
Wed 09:55:15 AM 43.5267 -89.6375 281° West 391 450 37,400 -1,839 Descending Chicago Center
Wed 09:56:17 AM 43.5469 -89.7775 281° West 377 434 35,500 -1,839 Descending Chicago Center
Wed 09:57:19 AM 43.5664 -89.9197 281° West 378 435 33,600 -1,887 Descending Chicago Center
Wed 09:58:21 AM 43.5867 -90.0622 281° West 380 437 31,600 -2,081 Descending Chicago Center
Wed 09:59:23 AM 43.6125 -90.2372 282° West 388 447 29,300 -1,984 Descending Chicago Center
Wed 10:00:25 AM 43.6294 -90.3742 280° West 397 457 27,500 -1,790 Descending Chicago Center
Wed 10:01:27 AM 43.6525 -90.5275 282° West 410 472 25,600 -1,694 Descending Chicago Center
Wed 10:02:29 AM 43.6789 -90.7114 281° West 411 473 24,000 -774 Descending Chicago Center
Wed 10:03:31 AM 43.6983 -90.8622 280° West 404 465 24,000 -435 Level Chicago Center
Wed 10:04:33 AM 43.7197 -91.0136 281° West 405 466 23,100 -1,355 Descending Chicago Center
Wed 10:05:35 AM 43.7419 -91.1728 281° West 421 484 21,200 -1,790 Descending Chicago Center
Wed 10:06:37 AM 43.7639 -91.3267 281° West 415 478 19,400 -1,984 Descending Chicago Center
Wed 10:07:39 AM 43.7864 -91.5042 280° West 398 458 17,100 -2,081 Descending Chicago Center
Wed 10:08:41 AM 43.8042 -91.6525 279° West 394 453 15,100 -2,049 Descending Chicago Center
Wed 10:09:42 AM 43.8222 -91.7894 280° West 367 422 12,900 -1,951 Descending Chicago Center
Wed 10:10:44 AM 43.8300 -91.9111 275° West 340 391 11,100 -1,935 Descending Chicago Center
Wed 10:11:46 AM 43.8267 -92.0008 267° West 277 319 8,900 -3,000 Descending Chicago Center
Wed 10:12:48 AM 43.8172 -92.1181 264° West 257 296 4,900 -2,903 Descending Chicago Center
Wed 10:13:50 AM 43.7936 -92.2203 252° West 273 314 2,900 -919 Descending Chicago Center
Wed 10:14:52 AM 43.7719 -92.3067 251° West 271 312 3,000 42 Climbing Chicago Center
Wed 10:16:14 AM 43.8378 -92.3881 318° Northwest 208 239 3,000 -167 Level Minneapolis Center
Wed 10:17:16 AM 43.8631 -92.4250 314° West 142 163 2,600 -537 Descending Minneapolis Center
Wed 10:18:17 AM 43.8842 -92.4575 312° West 122 140 1,900 -634 Descending Minneapolis Center
Wed 10:19:19 AM 43.9058 -92.4906 312° West 112 129 1,300 -581 Descending Minneapolis Center

Login

Don't have an account? Register now (free) for customized features, flight alerts, and more!